sat.trackr.live / text

‹ back to catalog

SKYSAT-C6

NORAD 42992 · 2017-068F

PAYLOAD ACTIVE UNKNOWN

§ Identity

Operator
Country
US
Launch date
2017-10-31
Launch site
AFWTR
Launch vehicle
Mass (kg)
RCS (m²)

Purposes: earth_obs

External: N2YO · Heavens-Above · Gunter

§ Orbital elements

Epoch: 2026-05-25T02:55:10.274016Z

Period
93.87 min
Inclination
97.4536°
Eccentricity
0.0001949
Mean motion
15.33993785 rev/d
Perigee alt
462.6 km
Apogee alt
465.2 km
Semi-major
6,842.0 km
B*
2.6316e-4
RAAN
282.5072°
Arg perigee
190.6610°
Mean anomaly
169.4592°
Rev number
47,878

§ Raw data

SKYSAT-C61 42992U 17068F   26145.12164669  .00008576  00000+0  26316-3 0  99972 42992  97.4536 282.5072 0001949 190.6610 169.4592 15.33993785478787

JSON: /api/v1/satellites/42992 · /tle

For live sub-satellite position, see the globe view (requires WebGL).

§ Visibility from observer

Set your observer location to see the next 7 days of passes ≥ 10°. The values pass through the URL so the page stays shareable.

No JS? Fill the form by hand. The geolocation button needs JavaScript.